Location: Arpaise
(41.0333°N, 14.7333°E)
Time: 01:25:33
(UTC+00:00)

ARGOS - Pass Details

Date: 05 July 2020
Orbit: 819 x 835 km, 98.5° (Epoch: 11 August)

Event Time Altitude Azimuth Distance (km) Brightness Sun altitude
Rises 19:04:55 0° 183° (S) 3,366 6.0 -5.3°
Reaches altitude 10° 19:07:22 10° 190° (S) 2,438 5.3 -5.7°
Maximum altitude 19:12:31 44° 262° (W) 1,142 4.3 -6.4°
Drops below altitude 10° 19:17:42 10° 334° (NNW) 2,454 6.8 -7.2°
Sets 19:20:11 0° 340° (NNW) 3,392 7.5 -7.6°
